GW0097 Weather Reports


time (UTC)temp
C
wind
direction
speed
KPH
gust
KPH
rain 1hr
cm
rain 24hr
cm
rain mn
cm
humidity
%
barometer
mb
20260503225007 28 290 3.2 11.3 0.00 0.00 0.00 46 1008.1
20260503224007 28 22 3.2 4.8 0.00 0.00 0.00 46 1008.1
20260503223007 27 32 4.8 14.5 0.00 0.00 0.00 48 1008.2
20260503222007 27 15 8.0 12.9 0.00 0.00 0.00 48 1008.3
20260503221007 27 355 3.2 12.9 0.00 0.00 0.00 49 1008.4
20260503220006 28 318 3.2 9.7 0.00 0.00 0.00 48 1008.5
20260503215007 28 323 6.4 11.3 0.00 0.00 0.00 42 1008.6
20260503214006 29 27 4.8 11.3 0.00 0.00 0.00 42 1008.6
20260503213006 29 12 3.2 14.5 0.00 0.00 0.00 39 1008.7
20260503212007 29 71 12.9 16.1 0.00 0.00 0.00 38 1008.8
20260503211006 28 45 9.7 14.5 0.00 0.00 0.00 39 1008.8
20260503210006 28 72 9.7 19.3 0.00 0.00 0.00 41 1008.9
20260503205006 28 61 8.0 14.5 0.00 0.00 0.00 44 1009.1
20260503204006 28 52 9.7 19.3 0.00 0.00 0.00 43 1009.3
20260503203006 27 67 11.3 19.3 0.00 0.00 0.00 46 1009.4
20260503202006 27 67 12.9 19.3 0.00 0.00 0.00 48 1009.4
20260503201008 27 59 11.3 19.3 0.00 0.00 0.00 49 1009.4
20260503201006 27 61 12.9 19.3 0.00 0.00 0.00 49 1009.4
20260503200006 27 71 11.3 19.3 0.00 0.00 0.00 48 1009.5
20260503195006 27 63 8.0 19.3 0.00 0.00 0.00 50 1009.6
20260503194006 27 53 11.3 19.3 0.00 0.00 0.00 48 1009.7
20260503193006 26 41 9.7 16.1 0.00 0.00 0.00 50 1009.7
20260503192006 26 36 11.3 27.4 0.00 0.00 0.00 50 1009.8
20260503191006 26 34 9.7 16.1 0.00 0.00 0.00 50 1010.0
20260503190007 25 53 11.3 19.3 0.00 0.00 0.00 50 1010.1
20260503185006 25 46 9.7 19.3 0.00 0.00 0.00 52 1010.1
20260503184006 25 59 12.9 19.3 0.00 0.00 0.00 53 1010.3
20260503183008 25 60 9.7 19.3 0.00 0.00 0.00 53 1010.2
20260503183006 25 54 9.7 19.3 0.00 0.00 0.00 53 1010.2
20260503182007 24 53 11.3 19.3 0.00 0.00 0.00 53 1010.2
20260503181006 23 58 11.3 19.3 0.00 0.00 0.00 54 1010.2
20260503180006 23 58 9.7 22.5 0.00 0.00 0.00 56 1010.2
20260503175006 23 70 11.3 19.3 0.00 0.00 0.00 56 1010.4
20260503174006 23 42 4.8 12.9 0.00 0.00 0.00 57 1010.6
20260503173006 23 64 4.8 9.7 0.00 0.00 0.00 57 1010.6
20260503172006 23 67 4.8 12.9 0.00 0.00 0.00 57 1010.6
20260503171006 23 54 8.0 14.5 0.00 0.00 0.00 56 1010.5
20260503151006 18 67 9.7 19.3 0.00 0.00 0.00 70 1010.7
20260503131007 15 54 8.0 11.3 0.00 0.00 0.00 77 1010.4
20260503131005 15 60 6.4 11.3 0.00 0.00 0.00 77 1010.4
20260503081005 11 37 0.0 3.2 0.00 0.00 0.00 97 1011.9
20260503072005 10 145 0.0 3.2 0.00 0.00 0.00 98 1012.2
20260503071005 10 142 0.0 1.6 0.00 0.00 0.00 97 1012.1
20260503055005 11 39 1.6 3.2 0.00 0.00 0.00 97 1012.7
20260503054005 11 68 0.0 1.6 0.00 0.00 0.00 96 1012.7
20260503053005 11 120 0.0 0.0 0.00 0.00 0.00 96 1012.9
20260503052006 11 150 0.0 0.0 0.00 0.00 0.00 96 1012.9
20260503051005 11 150 0.0 0.0 0.00 0.00 0.00 96 1012.9
20260503050005 11 150 0.0 0.0 0.00 0.00 0.00 96 1012.9
20260503045005 11 150 0.0 1.6 0.00 0.00 0.00 95 1012.8
20260503044007 12 157 0.0 1.6 0.00 0.00 0.00 95 1012.8
20260503044005 12 160 0.0 1.6 0.00 0.00 0.00 95 1012.7
20260503043005 12 163 0.0 3.2 0.00 0.00 0.00 95 1012.6
20260503042005 12 170 1.6 4.8 0.00 0.00 0.00 94 1012.5
20260503041005 12 159 1.6 3.2 0.00 0.00 0.00 94 1012.4
20260503035005 13 209 0.0 3.2 0.00 0.00 0.00 92 1012.2
20260503034005 13 200 1.6 4.8 0.00 0.00 0.00 92 1012.0
20260503033005 13 205 1.6 4.8 0.00 0.00 0.00 91 1011.7
20260503032005 13 256 0.0 4.8 0.00 0.00 0.00 87 1011.6
20260503031005 13 209 0.0 4.8 0.00 0.00 0.00 86 1011.6
20260503030005 14 210 1.6 4.8 0.00 0.00 0.00 85 1011.6
20260503025005 15 202 1.6 4.8 0.00 0.00 0.00 84 1011.6
20260503024005 15 228 1.6 8.0 0.00 0.00 0.00 84 1011.5
20260503023005 15 223 3.2 9.7 0.00 0.00 0.00 84 1011.5
20260503022005 15 204 3.2 4.8 0.00 0.00 0.00 83 1011.5
20260503021005 15 184 3.2 8.0 0.00 0.00 0.00 82 1011.6
20260503020005 16 244 4.8 12.9 0.00 0.00 0.00 81 1011.7
20260503015005 15 326 3.2 14.5 0.00 0.00 0.00 81 1011.7
20260503014008 16 224 3.2 12.9 0.00 0.00 0.00 81 1011.7
20260503014005 16 224 3.2 9.7 0.00 0.00 0.00 81 1011.7
20260503013007 16 283 3.2 9.7 0.00 0.00 0.00 80 1011.7
20260503013005 16 276 1.6 9.7 0.00 0.00 0.00 80 1011.7
20260503012005 16 223 1.6 4.8 0.00 0.00 0.00 82 1011.6
20260503011007 16 263 3.2 4.8 0.00 0.00 0.00 82 1011.7
20260503010007 16 241 3.2 9.7 0.00 0.00 0.00 83 1011.8
20260503005007 16 218 3.2 9.7 0.00 0.00 0.00 83 1011.9
20260503004008 16 229 3.2 11.3 0.00 0.00 0.00 83 1012.0
20260503003006 16 249 3.2 14.5 0.00 0.00 0.00 83 1012.0
20260503002007 15 246 4.8 12.9 0.00 0.00 0.00 84 1012.1
20260503001005 15 242 4.8 16.1 0.00 0.00 0.00 83 1012.1
20260503000007 16 239 3.2 11.3 0.00 0.00 0.00 83 1012.2
20260502235007 15 275 4.8 19.3 0.00 0.00 0.00 85 1012.4
20260502234007 15 294 3.2 19.3 0.00 0.00 0.00 86 1012.5
20260502234005 15 304 3.2 19.3 0.00 0.00 0.00 86 1012.5
20260502233005 15 301 9.7 19.3 0.00 0.00 0.00 83 1012.5
20260502232007 16 288 6.4 19.3 0.00 0.00 0.00 81 1012.5
20260502231007 16 288 3.2 16.1 0.00 0.00 0.00 83 1012.6
20260502230007 16 240 3.2 16.1 0.00 0.00 0.00 84 1012.7